Flag for Russia Weather past 2 weeks in Astrakhan, Russia

Now
97 °F

Sunny.


Feels Like: 92 °F
Forecast: 73 / 93 °F
Wind: 13 mph from Northeast

Location: Astrakhan

Current Time: Aug 3, 2015 at 2:22:24 PM

Latest Report: Aug 3, 2015 at 2:00 PM


Visibility: 10 mi

Pressure: 30.01 "Hg

Humidity: 14%

Dew point: 41 °F

Location of AstrakhanLocation

Historic Weather in Astrakhan — Graph

°F

Astrakhan temperature yesterday

Maximum temperature yesterday: 104 °F (at 2:00 PM)
Minimum temperature yesterday: 73 °F (at 2:00 AM)
Average temperature yesterday: 90 °F

Past Weeks' High & Low Weather Summary

 TemperatureHumidityPressure
High104 °F (Aug 2, 2:00 PM)88% (Jul 20, 4:00 AM)30.07 "Hg (Jul 20, 4:00 AM)
Low59 °F (Jul 20, 4:00 AM)11% (Jul 28, 12:30 PM)29.71 "Hg (Jul 28, 3:00 PM)
Average82 °F41%29.85 "Hg
* Reported Jul 19 12:00 Noon — Aug 3 12:30 PM, Astrakhan, Weather by CustomWeather, © 2015

Note: Actual official high and low records may vary slightly from our data, if they occured in-between our weather recording intervals... More about our weather records

Advertising

Astrakhan weather history for previous 24 hours

 ConditionsComfort  
Time TempWeatherWind HumidityBarometerVisibility
12:30 PM
Mon, Aug 3
95 °FSunny.13 mph18%30.04 "Hg10 mi
12:00 PM93 °FSunny.17 mph19%30.04 "Hg10 mi
11:30 AM93 °FSunny.15 mph19%30.04 "Hg10 mi
11:00 AM91 °FSunny.15 mph20%30.04 "Hg10 mi
10:30 AM91 °FPassing clouds.15 mph21%30.04 "HgN/A
10:00 AM90 °FSunny.15 mph21%30.04 "Hg10 mi
9:30 AM88 °FSunny.17 mph22%30.04 "Hg10 mi
9:00 AM86 °FSunny.15 mph24%30.04 "Hg10 mi
8:30 AM84 °FSunny.17 mph25%30.04 "Hg10 mi
8:00 AM84 °FSunny.15 mph25%30.07 "Hg10 mi
7:30 AM81 °FSunny.15 mph28%30.04 "Hg10 mi
7:00 AM81 °FSunny.15 mph28%30.04 "Hg10 mi
6:30 AM79 °FSunny.13 mph28%30.04 "Hg10 mi
6:00 AM79 °FSunny.15 mph28%30.04 "Hg10 mi
5:30 AM79 °FClear.13 mph28%30.04 "Hg10 mi
5:00 AM79 °FClear.15 mph26%30.04 "Hg10 mi
4:30 AM79 °FPassing clouds.13 mph26%30.04 "HgN/A
4:00 AM81 °FClear.15 mph24%30.01 "Hg10 mi
3:30 AM81 °FClear.13 mph24%30.01 "Hg10 mi
3:00 AM81 °FPassing clouds.13 mph23%30.01 "HgN/A
2:30 AM82 °FPassing clouds.15 mph21%30.01 "HgN/A
2:00 AM82 °FClear.15 mph21%30.01 "Hg10 mi
1:30 AM84 °FClear.13 mph20%30.01 "Hg10 mi
1:00 AM84 °FClear.15 mph22%30.01 "Hg10 mi
12:30 AM86 °FClear.13 mph22%29.98 "Hg10 mi
12:00 AM86 °FClear.15 mph25%29.98 "Hg10 mi
11:30 PM
Sun, Aug 2
88 °FClear.15 mph25%29.98 "Hg10 mi
11:00 PM88 °FClear.15 mph25%29.98 "Hg10 mi
10:30 PM88 °FClear.10 mph27%29.98 "Hg10 mi
10:00 PM90 °FClear.10 mph26%29.98 "Hg10 mi
9:30 PM90 °FClear.8 mph26%29.98 "Hg10 mi
9:00 PM90 °FClear.8 mph26%29.98 "Hg10 mi
8:30 PM91 °FClear.8 mph24%29.98 "Hg10 mi
8:00 PM91 °FSunny.6 mph24%29.95 "Hg10 mi
7:30 PM95 °FSunny.6 mph20%29.92 "Hg10 mi
7:00 PM95 °FSunny.6 mph20%29.92 "Hg10 mi
6:30 PM97 °FSunny.10 mph19%29.92 "Hg10 mi
6:00 PM99 °FSunny.13 mph18%29.92 "Hg10 mi
5:30 PM99 °FSunny.15 mph19%29.92 "Hg10 mi
5:00 PM100 °FPassing clouds.15 mph17%29.92 "HgN/A
4:30 PM102 °FSunny.10 mph17%29.92 "Hg10 mi
4:00 PM102 °FPassing clouds.13 mph17%29.92 "HgN/A
3:30 PM104 °FPassing clouds.10 mph15%29.92 "HgN/A
3:00 PM104 °FPassing clouds.13 mph15%29.92 "HgN/A
2:30 PM104 °FPassing clouds.10 mph14%29.92 "HgN/A
2:00 PM104 °FSunny.13 mph14%29.92 "Hg10 mi
Weather by CustomWeather, © 2015

See weather overviewHow to use our weather pages